Location: Unnamed
(45.3580°N, 90.2245°W)
Time: 13:57:57
(UTC-05:00)

Envisat - Pass Details

Date: 14 March 2021
Orbit: 764 x 766 km, 98.1° (Epoch: 21 April)

Event Time Altitude Azimuth Distance (km) Brightness Sun altitude
Rises 06:29:54 0° 16° (NNE) 3,243 6.5 -8.7°
Reaches altitude 10° 06:32:15 10° 19° (NNE) 2,312 5.8 -8.3°
Maximum altitude 06:37:19 64° 101° (ESE) 847 3.6 -7.4°
Drops below altitude 10° 06:42:20 10° 183° (S) 2,294 5.4 -6.5°
Sets 06:44:38 0° 187° (S) 3,215 6.1 -6.1°
